Location: Sungai Dangang
(2.7500°N, 113.8333°E)
Time: 04:36:02
(UTC+00:00)

FENGYUN 3A - Pass Details

Date: 16 May 2021
Orbit: 823 x 836 km, 98.4° (Epoch: 16 June)

Event Time Altitude Azimuth Distance (km) Brightness Sun altitude
Rises 20:20:39 0° 6° (N) 3,348 7.2 -27.2°
Reaches altitude 10° 20:23:01 10° 3° (N) 2,418 6.4 -26.7°
Enters shadow 20:28:10 63° 292° (WNW) 916 3.6 -25.5°
